Flag for Monaco Weather past 2 weeks in Monaco, Monaco

Now
52 °F

Passing clouds.


Feels Like: 47 °F
Forecast: 47 / 59 °F
Wind: 13 mph from Northwest

Location: Nice Airport

Current Time: Dec 21, 2014 at 8:31:08 PM

Latest Report: Dec 21, 2014 at 8:00 PM


Visibility: N/A

Pressure: 30.42 "Hg

Humidity: 67%

Dew point: 41 °F

Location of MonacoLocation

Historic Weather in Monaco — Graph

°F

Monaco temperature yesterday

Maximum temperature yesterday: 59 °F (at 3:00 PM)
Minimum temperature yesterday: 46 °F (at 5:00 AM)
Average temperature yesterday: 51 °F

Past Weeks' High & Low Weather Summary

 TemperatureHumidityPressure
High63 °F (Dec 15, 11:30 AM)88% (Dec 7, 5:00 AM)30.42 "Hg (Dec 7, 5:00 AM)
Low43 °F (Dec 10, 7:30 AM)29% (Dec 9, 2:00 PM)29.71 "Hg (Dec 9, 4:30 AM)
Average52 °F65%30.05 "Hg
* Reported Dec 6 7:00 PM — Dec 21 7:30 PM, Monaco, Weather by CustomWeather, © 2014

Note: Actual official high and low records may vary slightly from our data, if they occured in-between our weather recording intervals... More about our weather records

Advertising

Monaco weather history for previous 24 hours

 ConditionsComfort  
Time TempWeatherWind HumidityBarometerVisibility
7:30 PM
Dec 21
50 °FPassing clouds.13 mph71%30.42 "HgN/A
7:00 PM50 °FPassing clouds.12 mph71%30.39 "HgN/A
6:30 PM52 °FPassing clouds.12 mph67%30.39 "HgN/A
5:52 PM52 °FPassing clouds.10 mph67%30.39 "HgN/A
5:30 PM54 °FPassing clouds.8 mph63%30.36 "HgN/A
5:00 PM59 °FPassing clouds.6 mph77%30.36 "HgN/A
4:30 PM61 °FScattered clouds.7 mph72%30.36 "HgN/A
4:00 PM61 °FScattered clouds.6 mph68%30.33 "HgN/A
3:30 PM63 °FScattered clouds.2 mph59%30.33 "HgN/A
3:00 PM63 °FPassing clouds.1 mph52%30.33 "HgN/A
2:23 PM61 °FPassing clouds.5 mph45%30.33 "HgN/A
2:00 PM61 °FPassing clouds.7 mph42%30.33 "HgN/A
1:30 PM59 °FPassing clouds.9 mph42%30.33 "HgN/A
1:00 PM59 °FPassing clouds.8 mph42%30.30 "HgN/A
12:30 PM57 °FScattered clouds.12 mph41%30.33 "HgN/A
12:00 PM55 °FScattered clouds.14 mph44%30.30 "HgN/A
11:30 AM54 °FScattered clouds.14 mph47%30.30 "HgN/A
11:00 AM52 °FScattered clouds.12 mph50%30.33 "HgN/A
10:30 AM50 °FScattered clouds.14 mph50%30.30 "HgN/A
10:00 AM48 °FScattered clouds.15 mph54%30.30 "HgN/A
9:30 AM46 °FScattered clouds.14 mph57%30.27 "HgN/A
9:00 AM46 °FScattered clouds.15 mph57%30.27 "HgN/A
8:30 AM46 °FScattered clouds.17 mph57%30.24 "HgN/A
8:00 AM46 °FPassing clouds.17 mph57%30.24 "HgN/A
7:30 AM46 °FPassing clouds.15 mph57%30.24 "HgN/A
7:00 AM46 °FPassing clouds.17 mph57%30.21 "HgN/A
6:30 AM46 °FPassing clouds.16 mph62%30.21 "HgN/A
6:00 AM46 °FPassing clouds.16 mph62%30.21 "HgN/A
5:30 AM46 °FPassing clouds.15 mph62%30.18 "HgN/A
5:00 AM48 °FPassing clouds.14 mph58%30.18 "HgN/A
4:30 AM46 °FClear.13 mph62%30.18 "Hg10 mi
3:30 AM46 °FClear.12 mph66%30.18 "Hg10 mi
3:00 AM46 °FClear.10 mph66%30.18 "Hg10 mi
2:30 AM48 °FClear.14 mph62%30.18 "Hg10 mi
2:00 AM48 °FClear.12 mph66%30.18 "Hg10 mi
1:30 AM48 °FClear.9 mph66%30.18 "Hg10 mi
1:00 AM48 °FClear.12 mph66%30.18 "Hg10 mi
12:30 AM48 °FClear.13 mph66%30.18 "Hg10 mi
12:00 AM48 °FPassing clouds.7 mph71%30.18 "HgN/A
11:30 PM
Dec 20
48 °FClear.9 mph71%30.18 "Hg10 mi
11:00 PM48 °FClear.10 mph71%30.18 "Hg10 mi
10:30 PM50 °FClear.8 mph67%30.18 "Hg10 mi
10:00 PM50 °FClear.12 mph67%30.18 "Hg10 mi
9:00 PM50 °FClear.10 mph71%30.18 "Hg10 mi
8:30 PM50 °FClear.10 mph71%30.18 "Hg10 mi
8:00 PM50 °FClear.10 mph71%30.18 "Hg10 mi
Weather by CustomWeather, © 2014

See weather overviewHow to use our weather pages